Regional Weather Roundup
Issued by NWS

Home | Current Version | Previous Version | Graphics & Text | Print | Product List | Glossary On
Versions: 1 2 3 4 5 6 7 8 9 10 11 12 13 14 15 16 17 18 19 20 21 22 23 24 25 26 27 28 29 30 31 32 33 34 35 36 37 38 39 40 41 42 43 44 45 46 47 48 49 50
430
ASUS45 KCYS 231310
RWRWY

WYOMING REGIONAL WEATHER ROUNDUP
NATIONAL WEATHER SERVICE CHEYENNE WY
700 AM MDT WED AUG 23 2017

NOTE:  "FAIR" INDICATES FEW OR NO CLOUDS BELOW 12,000 FEET
WITH NO SIGNIFICANT WEATHER AND/OR OBSTRUCTIONS TO VISIBILITY.

WYZ001-231400-
YELLOWSTONE NATIONAL PARK

CITY           SKY/WX    TMP DP  RH WIND       PRES   REMARKS
LK YELLOWSTONE   N/A     36  35  96 CALM      30.41R
W YELLOWSTONE  NOT AVBL

$$
WYZ002>013-054>058-071-098>099-231400-
NORTHERN WYOMING

CITY           SKY/WX    TMP DP  RH WIND       PRES   REMARKS
JACKSON        FAIR      38  32  79 N8        30.34R WCI  32
CODY           FAIR      54  36  50 CALM      30.17R
GREYBULL       FAIR      52  37  56 CALM      30.10R
WORLAND        FAIR      53  34  48 S10       30.11R
SHERIDAN       FAIR      51  41  68 SW3       30.08R
BUFFALO        FAIR      64  32  30 W6        30.14R
GILLETTE       FAIR      53  43  68 CALM      30.10S
HULETT         FAIR      59  50  72 SW5       30.12R
NEWCASTLE      FAIR      57  46  67 CALM      30.12S

$$
WYZ014>020-022>026-101>103-231400-
CENTRAL WYOMING

CITY           SKY/WX    TMP DP  RH WIND       PRES   REMARKS
BIG PINEY      CLOUDY    47  34  60 NW5       30.34R
PINEDALE       FAIR      39  32  75 W6        30.34S WCI  35
DUBOIS         FAIR      46  27  46 NW10      30.34S
LANDER           N/A    N/A N/A N/A MISG      30.20R
RIVERTON       FAIR      56  34  43 NW9       30.21R
CASPER         FAIR      51  39  63 W8        30.18S
DOUGLAS        FAIR      52  49  89 NW7       30.17R

$$
WYZ021-027>030-104>119-231400-
SOUTHERN WYOMING

CITY           SKY/WX    TMP DP  RH WIND       PRES   REMARKS
EVANSTON       LGT RAIN  60  44  55 E6        30.35R
KEMMERER         N/A     55  37  50 NW6       30.36R
FORT BRIDGER   CLOUDY    61  46  58 W10       30.37S
ROCK SPRINGS   NOT AVBL
DIXON          FAIR      55  38  53 SE5       30.34S
RAWLINS        NOT AVBL
SARATOGA       FAIR      57  36  44 S7        30.33S
LARAMIE        FAIR      47  38  71 SE8       30.32R
CHEYENNE       FAIR      59  40  49 NW6       30.23R
TORRINGTON     FAIR      53  52  96 E6        30.12R
PINE BLUFFS    FAIR      48  46  93 SW3       30.19R

$$




USA.gov is the U.S. government's official web portal to all federal, state and local government web resources and services.